EA3HRE-13 Weather Reports


Display with metric or nautical units.
time (UTC)temp
F
wind
direction
speed
MPH
gust
MPH
rain 1hr
in
rain 24hr
in
rain mn
in
humidity
%
barometer
mb
20260502162703 68 108 0.0 0.0 0.00 0.00 0.00 100 1019.7
20260502161633 68 120 0.0 0.0 0.00 0.00 0.00 100 1020.1
20260502160633 69 27 0.0 0.0 0.00 0.00 0.00 100 1020.2
20260502151603 70 95 0.0 0.0 0.00 0.00 0.00 100 1020.1
20260502150603 69 105 0.0 0.0 0.00 0.00 0.00 100 1020.2
20260502130532 74 134 0.0 0.0 0.00 0.00 0.00 100 1022.0
20260502123531 75 114 0.0 0.0 0.00 0.00 0.00 100 1022.0
20260502122531 75 76 0.0 0.0 0.00 0.00 0.00 100 1021.8
20260502121531 75 85 0.0 0.0 0.00 0.00 0.00 100 1022.1
20260502120531 74 134 0.0 0.0 0.00 0.00 0.00 100 1022.0
20260502115531 74 91 0.0 0.0 0.00 0.00 0.00 100 1022.1
20260502114501 74 109 0.0 0.0 0.00 0.00 0.00 100 1022.3
20260502113501 74 76 0.0 0.0 0.00 0.00 0.00 100 1022.4
20260502112501 73 113 0.0 0.0 0.00 0.00 0.00 100 1022.5
20260502111501 72 132 0.0 0.0 0.00 0.00 0.00 100 1022.8
20260502110431 73 143 0.0 0.0 0.00 0.00 0.00 100 1022.7
20260502105430 73 128 0.0 0.0 0.00 0.00 0.00 100 1022.6
20260502104430 72 92 0.0 0.0 0.00 0.00 0.00 100 1022.5
20260502103400 72 79 0.0 0.0 0.00 0.00 0.00 100 1022.5
20260502102400 73 114 0.0 0.0 0.00 0.00 0.00 100 1022.7
20260502101330 73 78 0.0 0.0 0.00 0.00 0.00 100 1022.7
20260502100330 73 152 0.0 0.0 0.00 0.00 0.00 100 1022.6
20260502091300 72 71 0.0 0.0 0.00 0.00 0.00 100 1023.1
20260502090300 71 36 0.0 0.0 0.00 0.00 0.00 100 1023.2
20260502071129 65 61 0.0 0.0 0.00 0.00 0.00 100 1023.7
20260502070129 65 9 0.0 0.0 0.00 0.00 0.00 100 1023.7
20260502065106 64 11 0.0 0.0 0.00 0.00 0.00 100 1023.7
20260502064037 64 14 0.0 0.0 0.00 0.00 0.00 100 1023.7
20260502063006 63 14 0.0 0.0 0.00 0.00 0.00 100 1023.4
20260502062006 63 7 0.0 0.0 0.00 0.00 0.00 100 1023.4
20260502061006 63 7 0.0 0.0 0.00 0.00 0.00 100 1023.4
20260502060006 63 8 0.0 0.0 0.00 0.00 0.00 100 1023.4
20260502055006 62 7 0.0 0.0 0.00 0.00 0.00 100 1023.3
20260502053936 62 7 0.0 0.0 0.00 0.00 0.00 100 1023.3
20260502052935 62 7 0.0 0.0 0.00 0.00 0.00 100 1023.1
20260502051935 62 4 0.0 0.0 0.00 0.00 0.00 100 1023.1
20260502050905 62 5 0.0 0.0 0.00 0.00 0.00 100 1023.0
20260502045905 62 3 0.0 0.0 0.00 0.00 0.00 100 1023.0
20260502044905 62 27 0.0 0.0 0.00 0.00 0.00 100 1022.9
20260502043835 62 14 0.0 0.0 0.00 0.00 0.00 100 1022.9
20260502042835 62 6 0.0 0.0 0.00 0.00 0.00 100 1022.9
20260502041835 62 3 0.0 0.0 0.00 0.00 0.00 100 1022.9
20260502040835 62 10 0.0 0.0 0.00 0.00 0.00 100 1022.8
20260502035835 62 25 0.0 0.0 0.00 0.00 0.00 100 1022.9
20260502034835 63 41 0.0 0.0 0.00 0.00 0.00 100 1023.0
20260502033835 63 11 0.0 0.0 0.00 0.00 0.00 100 1022.9
20260502032835 63 22 0.0 0.0 0.00 0.00 0.00 100 1022.9
20260502031834 63 17 0.0 0.0 0.00 0.00 0.00 100 1022.9
20260502030834 63 33 0.0 0.0 0.00 0.00 0.00 100 1023.0
20260502025619 64 41 0.0 0.0 0.00 0.00 0.00 100 1022.9
20260502024619 64 47 0.0 0.0 0.00 0.00 0.00 100 1022.8
20260502023619 64 31 0.0 0.0 0.00 0.00 0.00 100 1022.9
20260502022619 64 78 0.0 0.0 0.00 0.00 0.00 100 1022.8
20260502021619 64 84 0.0 0.0 0.00 0.00 0.00 100 1022.9
20260502020618 65 80 0.0 0.0 0.00 0.00 0.00 100 1022.9
20260502015548 65 89 0.0 0.0 0.00 0.00 0.00 100 1023.0
20260502014548 65 86 0.0 0.0 0.00 0.00 0.00 100 1023.1
20260502013518 65 80 0.0 0.0 0.00 0.00 0.00 100 1023.0
20260502012518 65 81 0.0 0.0 0.00 0.00 0.00 100 1023.1
20260502011518 64 28 0.0 0.0 0.00 0.00 0.00 100 1023.2
20260502010518 64 28 0.0 0.0 0.00 0.00 0.00 100 1023.4
20260502005518 64 28 0.0 0.0 0.00 0.00 0.00 100 1023.3
20260502004518 64 28 0.0 0.0 0.00 0.00 0.00 100 1023.3
20260502003517 64 37 0.0 0.0 0.00 0.00 0.00 100 1023.3
20260502002517 64 55 0.0 0.0 0.00 0.00 0.00 100 1023.6
20260502001447 64 10 0.0 0.0 0.00 0.00 0.00 100 1023.6
20260502000447 64 9 0.0 0.0 0.00 0.00 0.00 100 1023.8
20260501235447 64 10 0.0 0.0 0.00 0.00 0.00 100 1024.0
20260501234447 64 19 0.0 0.0 0.00 0.00 0.00 100 1024.1
20260501233447 64 29 0.0 0.0 0.00 0.00 0.00 100 1024.2
20260501232447 64 43 0.0 0.0 0.00 0.00 0.00 100 1024.2
20260501231446 64 24 0.0 0.0 0.00 0.00 0.00 100 1024.1
20260501230446 64 72 0.0 0.0 0.00 0.00 0.00 100 1024.1
20260501225446 64 45 0.0 0.0 0.00 0.00 0.00 100 1024.1
20260501224446 65 54 0.0 0.0 0.00 0.00 0.00 100 1024.1
20260501223416 65 54 0.0 0.0 0.00 0.00 0.00 100 1024.2
20260501222416 65 35 0.0 0.0 0.00 0.00 0.00 100 1024.2
20260501221416 64 29 0.0 0.0 0.00 0.00 0.00 100 1024.1
20260501220416 64 30 0.0 0.0 0.00 0.00 0.00 100 1024.1
20260501215416 64 31 0.0 0.0 0.00 0.00 0.00 100 1024.1
20260501214415 64 26 0.0 0.0 0.00 0.00 0.00 100 1024.1
20260501213345 63 14 0.0 0.0 0.00 0.00 0.00 100 1024.0
20260501212345 63 16 0.0 0.0 0.00 0.00 0.00 100 1024.0
20260501211345 64 16 0.0 0.0 0.00 0.00 0.00 100 1024.0
20260501210315 64 1 0.0 0.0 0.00 0.00 0.00 100 1023.9
20260501205245 64 21 0.0 0.0 0.00 0.00 0.00 100 1024.0
20260501204245 64 12 0.0 0.0 0.00 0.00 0.00 100 1023.9
20260501203255 64 9 0.0 0.0 0.00 0.00 0.00 100 1023.9
20260501202245 64 48 0.0 0.0 0.00 0.00 0.00 100 1024.1
20260501201245 64 46 0.0 0.0 0.00 0.00 0.00 100 1023.8
20260501200245 65 7 0.0 0.0 0.00 0.00 0.00 100 1023.8
20260501181021 68 78 0.0 0.0 0.00 0.00 0.00 100 1022.9
20260501180021 69 92 0.0 0.0 0.00 0.00 0.00 100 1022.7
20260501175021 69 98 0.0 0.0 0.00 0.00 0.00 100 1022.7
20260501174021 68 85 0.0 0.0 0.00 0.00 0.00 100 1022.5
20260501173021 69 84 0.0 0.0 0.00 0.00 0.00 100 1022.2
20260501172021 69 104 0.0 0.0 0.00 0.00 0.00 100 1022.2
20260501171020 70 99 0.0 0.0 0.00 0.00 0.00 100 1022.1
20260501170020 71 129 0.0 0.0 0.00 0.00 0.00 100 1022.1
20260501165020 72 125 0.0 0.0 0.00 0.00 0.00 100 1022.0
20260501164020 72 91 0.0 0.0 0.00 0.00 0.00 100 1022.0
20260501162951 72 130 0.0 0.0 0.00 0.00 0.00 100 1021.9